Weather Roundup
Issued by NWS Corpus Christi, TX

Home | Current Version | Previous Version | Text Only | Print | Product List | Glossary On
Versions: 1 2 3 4 5 6 7 8 9 10 11 12 13 14 15 16 17 18 19 20 21 22 23 24 25 26 27 28 29 30 31 32 33 34 35 36 37 38 39 40 41 42 43 44 45 46 47 48 49 50
000
ASUS44 KCRP 171210
HRRCRP

SOUTH TEXAS REGIONAL WEATHER ROUNDUP
NATIONAL WEATHER SERVICE CORPUS CHRISTI TX
700 AM CDT WED SEP 17 2014


TXZ229>244-171300-
...CORPUS CHRISTI AREA OBSERVATIONS...

CITY           SKY/WX    TMP DP  RH WIND       PRES   REMARKS
CORPUS CHRISTI MOCLDY    77  75  93 S5        29.93R
NAS CORPUS CHR MOCLDY    78  78 100 SW6       29.93R
ROCKPORT       PTCLDY    75  75 100 SW3       29.93R
KINGSVILLE NAS PTCLDY    77  76  96 S5        29.93R
ALICE          PTCLDY    76  75  97 S5        29.93R
FALFURRIAS     PTCLDY   -34 -35  93 CALM      29.93R
$$

...VICTORIA AREA OBSERVATIONS...

CITY           SKY/WX    TMP DP  RH WIND       PRES   REMARKS
VICTORIA       MOCLDY    76  75  97 CALM      29.94S FOG
BEEVILLE       FAIR      75  75 100 CALM      29.94R
PLEASANTON     MOCLDY    76  74  94 SE5       29.94S FOG
SAN ANTONIO    LGT RAIN  77  75  93 E5        29.96S
$$

...LAREDO AREA OBSERVATIONS...

CITY           SKY/WX    TMP DP  RH WIND       PRES   REMARKS
LAREDO         PTCLDY    76  76 100 SE7       29.95R
COTULLA        CLOUDY   N/A N/A N/A SE7       29.93R
DEL RIO        CLOUDY    77  74  90 E7        29.94S
MCALLEN        CLEAR     75  75 100 SE5       29.92S
HEBBRONVILLE     N/A     74  73  96 SE7       29.95R FOG
$$

...OTHER TEXAS OBSERVATIONS...

CITY           SKY/WX    TMP DP  RH WIND       PRES   REMARKS
BROWNSVILLE    CLEAR     76  75  97 S5        29.93R
HOUSTON        MOCLDY    76  75  97 CALM      29.95S
COL. STATION   CLOUDY    75  74  96 SE3       29.96S
AUSTIN         CLOUDY    76  74  93 CALM      29.96R
WACO           CLOUDY    73  72  96 S7        29.97R
FORT WORTH     MOCLDY    75  70  84 SE5       29.96S
WICHITA FALLS  MOCLDY    72  68  87 S6        29.96R
LUBBOCK        LGT RAIN  67  65  93 N3        30.08R FOG
EL PASO        LGT RAIN  68  63  84 N9        30.05S
$$

...MARINE OBSERVATIONS...

STATION/POSITION TIME  SKY/WX   TEMP    WIND        PRES    VSBY  WAVE   SWELL
                                AIR SEA DIR/SP/G                  HT/PER HT/PER
                 (UTC)          (F)     (DEG/KT/KT) (MB)    (MI)  (FT/S) (FT/S)
PORT ARANSAS     1200            82 83  220/ 11/ 12 1014.0R
BUOY 90 E PORT A 1200            83 85  190/ 10/ 12 1014.0R         2/ 6   2/ 6
BUOY 45 SE BAFFI 1200            83 84  180/ 12/ 14 1012.8R         3/ 4   2/ 6
BUOY 200 E PT IS 1200            84 86  190/  8/  8 1013.9S         2/ 6   2/ 6
BUOY 15 E GALVES 1200            83 84  210/  8/  8 1013.6R         2/ 6   2/ 6
$$


USA.gov is the U.S. government's official web portal to all federal, state and local government web resources and services.